Location: Newark
(0.5300°S, 127.4800°E)
Time: 04:50:44
(UTC+00:00)

Vanguard 3 - Pass Details

Date: 27 September 2019
Orbit: 508 x 3262 km, 33.3° (Epoch: 20 October)

Event Time Altitude Azimuth Distance (km) Brightness Sun altitude
Rises 21:16:01 0° 294° (WNW) 4,321 10.3 -1.2°
Reaches altitude 10° 21:20:22 10° 316° (NW) 3,851 10.2 -0.2°
Maximum altitude 21:26:04 16° 349° (N) 4,019 10.6 1.3°
Drops below altitude 10° 21:33:26 10° 21° (NNE) 5,148 11.5 3.1°
Sets 21:41:17 0° 40° (NE) 6,719 12.4 5.1°
